Location: Marcé
(47.5801°N, 0.3280°W)
Time: 18:43:17
(UTC+01:00)

S-56A Canister/Altair - Visible Passes

Search period start: 30 November 2021 00:00
Search period end: 10 December 2021 00:00
Orbit: 633 x 2500 km, 38.9° (Epoch: 29 November)

Date Brightness Start Highest point End Pass type
(mag) Time Alt. Az. Time Alt. Az. Time Alt. Az.
30 Nov 10.1 04:36:14 12° ESE 04:36:14 12° ESE 04:36:34 10° ESE visible
30 Nov 9.0 06:33:40 17° SW 06:35:05 20° SSW 06:38:19 10° SSE visible
01 Dec 8.8 06:02:51 22° SSW 06:02:51 22° SSW 06:06:13 10° SSE visible
02 Dec 9.2 05:32:02 20° SSE 05:32:02 20° SSE 05:34:06 10° SE visible
03 Dec 9.8 05:01:14 14° SE 05:01:14 14° SE 05:01:58 10° SE visible
04 Dec 9.5 06:27:54 12° SW 06:27:54 12° SW 06:29:30 10° SSW visible
05 Dec 9.6 05:57:08 13° SSW 05:57:08 13° SSW 05:58:06 10° S visible
06 Dec 9.9 05:26:24 10° S 05:26:24 10° S 05:26:25 10° S visible
07 Dec 11.4 21:58:06 10° SSW 21:58:12 10° SSW 21:58:12 10° SSW visible
08 Dec 11.2 21:25:11 10° S 21:27:36 14° S 21:27:36 14° S visible
09 Dec 11.0 20:52:23 10° S 20:57:00 17° SSE 20:57:00 17° SSE visible
09 Dec 11.5 22:54:04 10° SW 22:54:27 11° SW 22:54:27 11° SW visible
